Regional Weather Roundup
Issued by NWS Cleveland, OH

Home | Current Version | Previous Version | Graphics & Text | Print | Product List | Glossary On
Versions: 1 2 3 4 5 6 7 8 9 10 11 12 13 14 15 16 17 18 19 20 21 22 23 24 25 26 27 28 29 30 31 32 33 34 35 36 37 38 39 40 41 42 43 44 45 46 47 48 49 50
000
ASUS41 KCLE 101910
RWRCLE
OHIO REGIONAL WEATHER ROUNDUP
NATIONAL WEATHER SERVICE CLEVELAND, OH
200 PM EST WED FEB 10 2016

NOTE: "FAIR" INDICATES FEW OR NO CLOUDS BELOW 12,000 FEET WITH NO
SIGNIFICANT WEATHER AND/OR OBSTRUCTIONS TO VISIBILITY.

OHZ001>008-015>018-024>027-034-035-043-044-102000-
   NORTHWEST OHIO

CITY           SKY/WX    TMP DP  RH WIND       PRES   REMARKS
DEFIANCE       PTSUNNY   24  11  57 W10G18    29.89F WCI  14
FINDLAY        SNOW      21  16  81 W18G24    29.87S VSB 1/2 WCI   6
TOLEDO EXPRESS CLOUDY    22   8  55 W17G26    29.86S WCI   8
TOLEDO EXEC    CLOUDY    22  13  68 NW16      29.87R WCI   8
LIMA           FLURRIES  19  13  77 W21       29.90S WCI   3
$$

OHZ009>014-019>023-028>033-038-089-102000-
   NORTHEAST OHIO

CITY           SKY/WX    TMP DP  RH WIND       PRES   REMARKS
CLE-HOPKINS    LGT SNOW  21  13  71 W24       29.85R BLWGSNOWWCI   4
CLE-LAKEFRONT  FLURRIES  24  13  62 W25G32    29.81S WCI   8
CUY CO. ARPT   LGT SNOW  25  19  80 W16G28    29.80  WCI  12
LORAIN-ELYRIA  HVY SNOW  20  15  81 NW13      29.84R VSB 1/4 WCI   7
ASHTABULA      LGT SNOW  20  14  77 NW13G21   29.77S WCI   7
AKRON-CANTON   LGT SNOW  20  14  77 W18       29.80S VSB 1   WCI   5
WOOSTER        LGT SNOW  20  14  77 W17G26    29.82S WCI   5
MANSFIELD      LGT SNOW  20  14  77 W14       29.82S WCI   7
YOUNGSTOWN     LGT SNOW  22  16  78 W15G22    29.76S VSB 1   WCI   9
$$

OHZ042-051>053-060>062-070>072-077>081-102000-
  SOUTHWEST OHIO

CITY           SKY/WX    TMP DP  RH WIND       PRES   REMARKS
CINC-COVINGTON CLOUDY    17   7  64 W17       30.02F WCI   1
CINC-LUNKEN    FLURRIES  18  10  71 W13       30.06F WCI   5
HAMILTON       LGT SNOW  19  10  68 W14G21    30.04S WCI   6
DAYTON         CLOUDY    17   8  67 W23       29.97S WCI  -1
WRIGHT-PAT AFB NOT AVBL
DAYTON GENERAL CLOUDY    17   6  62 W16G23    29.97S WCI   2
WILMINGTON     LGT SNOW  17   9  70 W16       29.95F WCI   2
$$

OHZ036-037-039>041-045>050-054>059-063>069-073>076-082>088-102000-
  CENTRAL AND SOUTHEAST OHIO

CITY           SKY/WX    TMP DP  RH WIND       PRES   REMARKS
COLUMBUS       LGT SNOW  18  11  74 W14G23    29.93S WCI   4
OSU AIRPORT    CLOUDY    19  11  70 W15       29.91F WCI   5
BOLTON FIELD   CLOUDY    19  10  68 W14       29.94S WCI   6
RICKENBACK AFB LGT SNOW  18  13  80 W17       29.95S WCI   3
NEWARK         LGT SNOW  20  12  71 MISG      29.91S
MARION         LGT SNOW  21  13  71 W15G24    29.88S WCI   8
LANCASTER      LGT SNOW  18  12  77 W15G21    29.94S VSB 1   WCI   4
ZANESVILLE     LGT SNOW  21  13  71 W13       29.90S VSB 1   WCI   9
NEW PHILLY     LGT SNOW  22  15  75 W10G17    29.86S WCI  11
$$



USA.gov is the U.S. government's official web portal to all federal, state and local government web resources and services.